Back to catalog

CZ-6A DEB

AlivePO
NORAD 61319·DEBRIS·🇨🇳 China

Launched Aug 6, 2024 from Taiyuan Satellite Launch Center

Loading…

Next Passes (next 24 hours)

TLE

FreshSource: Space-Track

Epoch: Sep 14, 2026, 11:12 UTC

1 61319U 24140UG  26257.46683759  .00001650  00000-0  52461-3 0  9994
2 61319  89.0237 264.7169 0034532 305.0991  54.6973 14.39201472107117

Track CZ-6A DEB in real time with AllMySat

Download on the App Store